Hourly Weather Roundup
Issued by NWS Central Illinois

Home | Current Version | Previous Version | Text Only | Print | Product List | Glossary On
Versions: 1 2 3 4 5 6 7 8 9 10 11 12 13 14 15 16 17 18 19 20 21 22 23 24 25 26 27 28 29 30 31 32 33 34 35 36 37 38 39 40 41 42 43 44 45 46 47 48 49 50
200
NZUS43 KILX 271310
HWRILX

AREA WEATHER ROUNDUP
NATIONAL WEATHER SERVICE, LINCOLN IL
800 AM CDT WED JUL 27 2016


CITY           SKY/WX    TMP DP  RH WIND       PRES   REMARKS
BLOOMINGTON    SUNNY     74  69  85 SE6       30.04F
CHAMPAIGN      SUNNY     73  68  84 E3        30.04F
DANVILLE       SUNNY     72  69  90 CALM      30.02F FOG
DECATUR        MOSUNNY   73  70  90 E5        30.03F
EFFINGHAM      CLOUDY    73  73  99 E3        30.03F
FLORA          CLOUDY    76  74  93 NE3       30.02S
GALESBURG      SUNNY     73  70  88 CALM      30.01F
JACKSONVILLE   CLOUDY    74  70  88 SE6       30.01S
LACON          MOSUNNY   74  68  83 CALM      30.01F
LAWRENCEVILLE  CLOUDY    75  74  96 NE3       30.02S
LITCHFIELD     NOT AVBL
$$


CITY           SKY/WX    TMP DP  RH WIND       PRES   REMARKS
LINCOLN        SUNNY     74  71  91 CALM      30.02F
MACOMB         SUNNY     72  71  99 E3        30.03F FOG
MATTOON        CLOUDY    72  68  87 CALM      30.03F
MT CARMEL AP   CLOUDY    75  73  93 NE3       30.02S FOG
OLNEY-NOBLE AP CLOUDY    73  73 100 E3        30.03S
PARIS          MOSUNNY   72  70  92 CALM      30.05S
PEORIA         SUNNY     76  68  76 S3        30.02F
PONTIAC        SUNNY     75  74  96 CALM      30.04F
RANTOUL        NOT AVBL
ROBINSON       CLOUDY    72  72  98 CALM      30.04S
SPRINGFIELD    SUNNY     77  68  73 SE7       30.01F
TAYLORVILLE    MOSUNNY   74  69  86 MISG      30.02F
$$

...REGIONAL REPORTS...


CITY           SKY/WX    TMP DP  RH WIND       PRES   REMARKS
CHICAGO O`HARE MOSUNNY   76  66  71 CALM      30.02S
KANKAKEE       SUNNY     74  68  81 CALM      30.04F
MOLINE         SUNNY     73  67  81 E3        30.01F
MOUNT STERLING SUNNY     73  70  88 E6        30.00S
MOUNT VERNON   CLOUDY    75  70  83 MISG      30.00F
PITTSFIELD     PTSUNNY   74  73  94 CALM      30.01S
QUINCY         SUNNY     74  70  87 E6        29.99F
ROCKFORD       PTSUNNY   72  60  66 S3        30.03F
$$


CITY           SKY/WX    TMP DP  RH WIND       PRES   REMARKS
BURLINGTON     SUNNY     75  71  87 SE3       30.00F
CEDAR RAPIDS   PTSUNNY   72  71  97 CALM      30.01S
DES MOINES     MOSUNNY   74  66  76 SE5       29.98F
KIRKSVILLE     MOSUNNY   73  66  78 CALM      30.01F
OTTUMWA        NOT AVBL
ST LOUIS       CLOUDY    79  70  74 S5        30.01S HX  82
$$


CITY           SKY/WX    TMP DP  RH WIND       PRES   REMARKS
TERRE HAUTE    CLOUDY    73  69  87 CALM      30.04S
EVANSVILLE     CLOUDY    78  75  90 CALM      30.00F FOG     HX  81
INDIANAPOLIS   MOSUNNY   77  67  71 CALM      30.05S
LAFAYETTE      SUNNY     71  69  93 CALM      30.04S
MADISON        PTSUNNY   75  67  76 CALM      30.02S
MILWAUKEE      MOSUNNY   80  66  62 W5        30.00F HX  82
$$






USA.gov is the U.S. government's official web portal to all federal, state and local government web resources and services.